Simultaneous Nadir Overpasses (SNOs) Predictions

Prediction of SNOs between AURA and NPP Satellite Orbit:

Table of predicted SNOs for the next 14.0 days since TLE Epoch: 12/16/2012
Index Date (AURA) Time (AURA) Lat,Lon (AURA) SZA (AURA ) Date (NPP) Time (NPP) Lat,Lon (NPP) SZA (NPP ) Distance(km) Time Diff (sec)
1 12/18/2012 04:30:41 -79.79,-168.80 65.17 12/18/2012 04:30:06 -79.79,-168.65 65.17 3.11 35
2 12/18/2012 05:20:02 79.96, 0.21 114.58 12/18/2012 05:20:45 79.97, 0.34 114.53 2.67 43
3 12/20/2012 20:47:09 -79.77, -53.01 65.06 12/20/2012 20:47:01 -79.77, -53.06 65.04 1.02 8
4 12/20/2012 21:36:29 79.98, 116.27 114.65 12/20/2012 21:37:39 79.98, 116.21 114.61 1.26 70
5 12/23/2012 12:14:10 79.70,-105.32 115.10 12/23/2012 12:13:11 79.71,-105.19 115.12 2.78 59
6 12/23/2012 13:03:32 -79.89, 63.78 65.18 12/23/2012 13:03:50 -79.90, 63.91 65.22 2.63 18
7 12/26/2012 04:30:35 79.77, 11.07 114.99 12/26/2012 04:30:03 79.77, 11.13 115.01 1.17 32
8 12/26/2012 05:19:57 -79.95,-179.81 65.29 12/26/2012 05:20:42 -79.96,-179.75 65.33 1.04 45
9 12/28/2012 20:47:00 79.82, 127.34 114.85 12/28/2012 20:46:55 79.82, 127.38 114.85 0.78 5




NCC Satellite Simultaneous Nadir Overpasses (SNOs) Prediction Service
